Location: Dackenheim
(49.5215°N, 8.1854°E)
Time: 07:08:24
(UTC+00:00)

AO-85 - Pass Details

Date: 15 March 2026
Orbit: 507 x 686 km, 64.8° (Epoch: 14 April)

Event Time Altitude Azimuth Distance (km) Brightness Sun altitude
Exits shadow 02:29:57 10° 114° (ESE) 1,755 ? -30.0°
Maximum altitude 02:30:12 10° 111° (ESE) 1,750 ? -30.0°
Drops below altitude 10° 02:30:57 10° 100° (E) 1,774 ? -29.9°
Sets 02:34:55 0° 59° (ENE) 2,639 ? -29.4°
